This is the latest recevied weather packets stored in our database for station/object WA6ODQ-13. If no packets are shown the sender has not sent any weather packets the latest 10 day(s).
| Time | Temp. | Humidity | Pressure | Rain* | Wind** | Luminosity | Snow |
|---|---|---|---|---|---|---|---|
| 1777521842 | 21.11° C | 41% | 1012.6 hPa | 0 mm | - | 0 W/m² | - |
| 1777521538 | 21.11° C | 42% | 1012.8 hPa | 0 mm | - | 0 W/m² | - |
| 1777521236 | 21.11° C | 43% | 1012.9 hPa | 0 mm | - | 0 W/m² | - |
| 1777520933 | 21.11° C | 43% | 1012.6 hPa | 0 mm | - | 0 W/m² | - |
| 1777520630 | 21.11° C | 43% | 1012.6 hPa | 0 mm | - | 0 W/m² | - |
| 1777520326 | 21.11° C | 43% | 1012.4 hPa | 0 mm | - | 0 W/m² | - |
| 1777520024 | 21.67° C | 43% | 1012.4 hPa | 0 mm | - | 0 W/m² | - |
| 1777519721 | 21.67° C | 44% | 1012.3 hPa | 0 mm | - | 0 W/m² | - |
| 1777519418 | 21.67° C | 44% | 1012.3 hPa | 0 mm | - | 0 W/m² | - |
| 1777519115 | 21.67° C | 44% | 1012.4 hPa | 0 mm | - | 0 W/m² | - |
| 1777518810 | 21.67° C | 45% | 1012.1 hPa | 0 mm | - | 0 W/m² | - |
| 1777518506 | 21.67° C | 45% | 1012.2 hPa | 0 mm | - | 1 W/m² | - |
| 1777518202 | 21.67° C | 45% | 1012.6 hPa | 0 mm | - | 1 W/m² | - |
| 1777517899 | 21.67° C | 45% | 1012.3 hPa | 0 mm | - | 3 W/m² | - |
| 1777517594 | 22.22° C | 46% | 1012.4 hPa | 0 mm | - | 5 W/m² | - |
| 1777517293 | 22.22° C | 46% | 1012.2 hPa | 0 mm | - | 7 W/m² | - |
| 1777516991 | 22.22° C | 46% | 1012.3 hPa | 0 mm | - | 10 W/m² | - |
| 1777516688 | 22.78° C | 46% | 1012.2 hPa | 0 mm | - | 13 W/m² | - |
| 1777516384 | 22.78° C | 46% | 1012.2 hPa | 0 mm | - | 17 W/m² | - |
| 1777516080 | 22.78° C | 45% | 1012.1 hPa | 0 mm | - | 21 W/m² | - |
| 1777515777 | 22.78° C | 45% | 1012.1 hPa | 0 mm | - | 26 W/m² | - |
| 1777515473 | 22.78° C | 44% | 1012 hPa | 0 mm | - | 31 W/m² | - |
| 1777515171 | 22.78° C | 44% | 1012.3 hPa | 0 mm | - | 37 W/m² | - |
| 1777514867 | 23.33° C | 43% | 1012.3 hPa | 0 mm | - | 43 W/m² | - |
| 1777514563 | 23.33° C | 42% | 1012.1 hPa | 0 mm | - | 51 W/m² | - |
* Rain latest hour (hover to see other rain measurements)
** Current wind speed in m/s (hover to see current wind gust speed)